This is the latest recevied weather packets stored in our database for station/object CQ0XVC-11. If no packets are shown the sender has not sent any weather packets the latest 10 day(s).
| Time | Temp. | Humidity | Pressure | Rain* | Wind** | Luminosity | Snow |
|---|---|---|---|---|---|---|---|
| 1777625660 | 13.89° C | 63% | 1006.2 hPa | 0 mm | - | - | - |
| 1777625627 | 13.89° C | 63% | 1006.2 hPa | 0 mm | - | - | - |
| 1777625571 | 13.89° C | 65% | 1006.4 hPa | 0 mm | - | - | - |
| 1777625534 | 13.89° C | 65% | 1006.4 hPa | 0 mm | - | - | - |
| 1777625445 | 13.89° C | 66% | 1006.4 hPa | 0 mm | - | - | - |
| 1777625236 | 13.89° C | 65% | 1006.3 hPa | 0 mm | - | - | - |
| 1777624935 | 13.89° C | 67% | 1006.5 hPa | 0 mm | - | - | - |
| 1777624632 | 13.89° C | 74% | 1006.5 hPa | 0 mm | - | - | - |
| 1777624426 | 13.33° C | 71% | 1006.4 hPa | 0 mm | - | - | - |
| 1777624330 | 13.33° C | 71% | 1006.4 hPa | 0 mm | - | - | - |
| 1777624028 | 12.78° C | 73% | 1006.4 hPa | 0 mm | - | - | - |
| 1777623783 | 11.67° C | 72% | 1006.3 hPa | 0 mm | - | - | - |
| 1777623726 | 11.67° C | 72% | 1006.3 hPa | 0 mm | - | - | - |
| 1777623464 | 11.67° C | 73% | 1006.3 hPa | 0 mm | - | - | - |
| 1777623423 | 11.67° C | 73% | 1006.3 hPa | 0 mm | - | - | - |
| 1777623172 | 11.67° C | 73% | 1006.2 hPa | 0 mm | - | - | - |
| 1777623122 | 11.67° C | 73% | 1006.2 hPa | 0 mm | - | - | - |
| 1777622819 | 11.67° C | 72% | 1006.2 hPa | 0 mm | - | - | - |
| 1777622608 | 11.67° C | 72% | 1006 hPa | 0 mm | - | - | - |
| 1777622517 | 11.67° C | 72% | 1006 hPa | 0 mm | - | - | - |
| 1777622215 | 11.67° C | 72% | 1006 hPa | 0 mm | - | - | - |
| 1777621959 | 11.67° C | 71% | 1005.7 hPa | 0 mm | - | - | - |
| 1777621913 | 11.67° C | 71% | 1005.7 hPa | 0 mm | - | - | - |
| 1777621610 | 11.67° C | 73% | 1006 hPa | 0 mm | - | - | - |
| 1777621356 | 11.67° C | 73% | 1005.9 hPa | 0 mm | - | - | - |
* Rain since midnight (hover to see other rain measurements)
** Current wind speed in m/s (hover to see current wind gust speed)